sat.trackr.live / text

‹ back to catalog

STARLINK-35698

NORAD 66481 · 2025-262AB

PAYLOAD ACTIVE UNKNOWN

§ Identity

Operator
Country
US
Launch date
2025-11-15
Launch site
AFETR
Launch vehicle
Mass (kg)
RCS (m²)

Purposes: comms

External: N2YO · Heavens-Above · Gunter

§ Orbital elements

Epoch: 2026-05-24T22:48:33.065280Z

Period
94.27 min
Inclination
43.0033°
Eccentricity
0.0001055
Mean motion
15.27580829 rev/d
Perigee alt
482.3 km
Apogee alt
483.8 km
Semi-major
6,861.2 km
B*
5.0732e-4
RAAN
225.1222°
Arg perigee
251.4376°
Mean anomaly
108.6361°
Rev number
3,057

§ Raw data

STARLINK-356981 66481U 25262AB  26144.95038270  .00013725  00000+0  50732-3 0  99902 66481  43.0033 225.1222 0001055 251.4376 108.6361 15.27580829 30572

JSON: /api/v1/satellites/66481 · /tle

For live sub-satellite position, see the globe view (requires WebGL).

§ Visibility from observer

Set your observer location to see the next 7 days of passes ≥ 10°. The values pass through the URL so the page stays shareable.

No JS? Fill the form by hand. The geolocation button needs JavaScript.